Time,TemperatureF,DewpointF,PressureIn,WindDirection,WindDirectionDegrees,WindSpeedMPH,WindSpeedGustMPH,Humidity,HourlyPrecipIn,Conditions,Clouds,dailyrainin,SoftwareType,DateUTC
2013-02-23 00:00:00,-8.7,-13.0,29.59,SW,225,0.0,0.0,81,0.00,CLR,,0.00,WeatherDisplay:10.37,2013-02-23 09:00:00,
2013-02-23 00:09:00,-9.6,-13.6,29.59,SW,225,0.0,0.0,82,0.00,CLR,,0.00,WeatherDisplay:10.37,2013-02-23 09:09:00,
2013-02-23 00:14:00,-9.6,-13.6,29.58,SW,225,0.0,0.0,82,0.00,CLR,,0.00,WeatherDisplay:10.37,2013-02-23 09:14:00,
2013-02-23 00:19:00,-9.4,-13.7,29.58,SW,225,0.0,0.0,81,0.00,CLR,,0.00,WeatherDisplay:10.37,2013-02-23 09:19:00,
2013-02-23 00:24:00,-9.6,-14.1,29.58,SW,225,0.0,0.0,80,0.00,CLR,,0.00,WeatherDisplay:10.37,2013-02-23 09:24:00,
2013-02-23 00:30:00,-9.9,-14.4,29.58,SW,225,0.0,0.0,80,0.00,CLR,,0.00,WeatherDisplay:10.37,2013-02-23 09:30:00,
2013-02-23 00:39:00,-10.3,-14.8,29.58,SW,225,0.0,0.0,80,0.00,CLR,,0.00,WeatherDisplay:10.37,2013-02-23 09:39:00,
2013-02-23 00:44:00,-10.5,-14.9,29.58,SW,225,0.0,0.0,80,0.00,CLR,,0.00,WeatherDisplay:10.37,2013-02-23 09:44:00,
2013-02-23 00:49:00,-10.3,-14.8,29.57,SW,225,0.0,0.0,80,0.00,CLR,,0.00,WeatherDisplay:10.37,2013-02-23 09:49:00,
2013-02-23 00:54:00,-10.1,-14.6,29.58,SW,225,0.0,0.0,80,0.00,CLR,,0.00,WeatherDisplay:10.37,2013-02-23 09:54:00,
2013-02-23 01:00:00,-9.9,-14.4,29.57,SW,225,0.0,0.0,80,0.00,CLR,,0.00,WeatherDisplay:10.37,2013-02-23 10:00:00,
2013-02-23 01:14:00,-9.8,-14.3,29.57,SW,225,0.0,0.0,80,0.00,CLR,,0.00,WeatherDisplay:10.37,2013-02-23 10:14:00,
2013-02-23 01:24:00,-9.2,-13.2,29.56,North,0,0.0,0.0,82,0.00,CLR,,0.00,WeatherDisplay:10.37,2013-02-23 10:24:00,
2013-02-23 01:29:00,-9.7,-13.7,29.56,North,0,0.0,0.0,82,0.00,CLR,,0.00,WeatherDisplay:10.37,2013-02-23 10:29:00,
2013-02-23 01:39:00,-11.3,-15.3,29.56,North,0,0.0,0.0,82,0.00,CLR,,0.00,WeatherDisplay:10.37,2013-02-23 10:39:00,
2013-02-23 01:44:00,-11.9,-16.5,29.55,North,0,0.0,0.0,79,0.00,CLR,,0.00,WeatherDisplay:10.37,2013-02-23 10:44:00,
2013-02-23 01:49:00,-12.3,-17.2,29.55,North,0,0.0,0.0,78,0.00,CLR,,0.00,WeatherDisplay:10.37,2013-02-23 10:49:00,
2013-02-23 01:54:00,-12.5,-17.1,29.55,North,0,0.0,0.0,79,0.00,CLR,,0.00,WeatherDisplay:10.37,2013-02-23 10:54:00,
2013-02-23 01:59:00,-12.7,-16.7,29.55,North,0,0.0,0.0,82,0.00,CLR,,0.00,WeatherDisplay:10.37,2013-02-23 10:59:00,
2013-02-23 02:04:00,-12.8,-17.5,29.55,North,0,0.0,0.0,79,0.00,CLR,,0.00,WeatherDisplay:10.37,2013-02-23 11:04:00,
2013-02-23 02:09:00,-13.1,-16.8,29.55,North,0,0.0,0.0,83,0.00,CLR,,0.00,WeatherDisplay:10.37,2013-02-23 11:09:00,
2013-02-23 02:14:00,-13.2,-18.3,29.54,North,0,0.0,0.0,77,0.00,CLR,,0.00,WeatherDisplay:10.37,2013-02-23 11:14:00,
2013-02-23 02:24:00,-14.1,-19.2,29.54,North,0,0.0,0.0,77,0.00,CLR,,0.00,WeatherDisplay:10.37,2013-02-23 11:24:00,
2013-02-23 02:29:00,-14.3,-19.9,29.54,North,0,0.0,0.0,75,0.00,CLR,,0.00,WeatherDisplay:10.37,2013-02-23 11:29:00,
2013-02-23 02:34:00,-14.3,-19.5,29.54,North,0,0.0,0.0,77,0.00,CLR,,0.00,WeatherDisplay:10.37,2013-02-23 11:34:00,
2013-02-23 02:39:00,-14.3,-19.1,29.53,North,0,0.0,0.0,78,0.00,CLR,,0.00,WeatherDisplay:10.37,2013-02-23 11:39:00,
2013-02-23 02:44:00,-14.3,-19.1,29.53,North,0,0.0,0.0,78,0.00,CLR,,0.00,WeatherDisplay:10.37,2013-02-23 11:44:00,
2013-02-23 02:54:00,-14.1,-18.0,29.53,North,0,0.0,0.0,82,0.00,CLR,,0.00,WeatherDisplay:10.37,2013-02-23 11:54:00,
2013-02-23 02:59:00,-13.9,-18.8,29.52,North,0,0.0,0.0,78,0.00,CLR,,0.00,WeatherDisplay:10.37,2013-02-23 11:59:00,
2013-02-23 03:09:00,-13.7,-18.4,29.52,North,0,0.0,0.0,79,0.00,CLR,,0.00,WeatherDisplay:10.37,2013-02-23 12:09:00,
2013-02-23 03:15:00,-13.7,-18.6,29.52,North,0,0.0,0.0,78,0.00,CLR,,0.00,WeatherDisplay:10.37,2013-02-23 12:15:00,
2013-02-23 03:24:00,-14.0,-18.9,29.52,North,0,0.0,0.0,78,0.00,CLR,,0.00,WeatherDisplay:10.37,2013-02-23 12:24:00,
2013-02-23 03:29:00,-14.1,-19.0,29.52,North,0,0.0,0.0,78,0.00,CLR,,0.00,WeatherDisplay:10.37,2013-02-23 12:29:00,
2013-02-23 03:39:00,-14.3,-19.1,29.52,North,0,0.0,0.0,78,0.00,CLR,,0.00,WeatherDisplay:10.37,2013-02-23 12:39:00,
2013-02-23 03:44:00,-14.2,-18.8,29.52,North,0,0.0,0.0,79,0.00,CLR,,0.00,WeatherDisplay:10.37,2013-02-23 12:44:00,
2013-02-23 03:49:00,-13.7,-18.4,29.52,North,0,0.0,0.0,79,0.00,CLR,,0.00,WeatherDisplay:10.37,2013-02-23 12:49:00,
2013-02-23 03:54:00,-13.4,-18.0,29.51,North,0,0.0,0.0,79,0.00,CLR,,0.00,WeatherDisplay:10.37,2013-02-23 12:54:00,
2013-02-23 03:59:00,-13.1,-17.7,29.51,North,0,0.0,0.0,79,0.00,CLR,,0.00,WeatherDisplay:10.37,2013-02-23 12:59:00,
2013-02-23 04:09:00,-12.3,-17.0,29.51,North,0,0.0,0.0,79,0.00,CLR,,0.00,WeatherDisplay:10.37,2013-02-23 13:09:00,
2013-02-23 04:14:00,-11.8,-16.3,29.51,North,0,0.0,0.0,80,0.00,CLR,,0.00,WeatherDisplay:10.37,2013-02-23 13:14:00,
2013-02-23 04:19:00,-11.4,-15.8,29.51,North,0,0.0,0.0,80,0.00,CLR,,0.00,WeatherDisplay:10.37,2013-02-23 13:19:00,
2013-02-23 04:24:00,-10.9,-15.4,29.50,North,0,0.0,0.0,80,0.00,CLR,,0.00,WeatherDisplay:10.37,2013-02-23 13:24:00,
2013-02-23 04:29:00,-10.5,-14.9,29.50,North,0,0.0,0.0,80,0.00,CLR,,0.00,WeatherDisplay:10.37,2013-02-23 13:29:00,
2013-02-23 04:39:00,-10.0,-14.4,29.50,North,0,0.0,0.0,80,0.00,CLR,,0.00,WeatherDisplay:10.37,2013-02-23 13:39:00,
2013-02-23 04:44:00,-9.9,-14.4,29.49,North,0,0.0,0.0,80,0.00,CLR,,0.00,WeatherDisplay:10.37,2013-02-23 13:44:00,
2013-02-23 04:54:00,-9.9,-14.4,29.48,North,0,0.0,0.0,80,0.00,CLR,,0.00,WeatherDisplay:10.37,2013-02-23 13:54:00,
2013-02-23 04:59:00,-10.2,-14.7,29.48,North,0,0.0,0.0,80,0.00,CLR,,0.00,WeatherDisplay:10.37,2013-02-23 13:59:00,
2013-02-23 05:09:00,-11.2,-15.9,29.47,North,0,0.0,0.0,79,0.00,CLR,,0.00,WeatherDisplay:10.37,2013-02-23 14:09:00,
2013-02-23 05:15:00,-11.7,-16.4,29.47,North,0,0.0,0.0,79,0.00,CLR,,0.00,WeatherDisplay:10.37,2013-02-23 14:15:00,
2013-02-23 05:24:00,-12.4,-17.0,29.48,North,0,0.0,0.0,79,0.00,CLR,,0.00,WeatherDisplay:10.37,2013-02-23 14:24:00,
2013-02-23 05:29:00,-12.6,-17.3,29.48,North,0,0.0,0.0,79,0.00,CLR,,0.00,WeatherDisplay:10.37,2013-02-23 14:29:00,
2013-02-23 05:39:00,-12.5,-17.1,29.48,North,0,0.0,0.0,79,0.00,CLR,,0.00,WeatherDisplay:10.37,2013-02-23 14:39:00,
2013-02-23 05:44:00,-11.9,-16.4,29.47,North,0,0.0,0.0,80,0.00,CLR,,0.00,WeatherDisplay:10.37,2013-02-23 14:44:00,
2013-02-23 05:49:00,-11.4,-15.1,29.47,North,0,0.0,0.0,83,0.00,CLR,,0.00,WeatherDisplay:10.37,2013-02-23 14:49:00,
2013-02-23 05:54:00,-10.9,-15.4,29.46,North,0,0.0,0.0,80,0.00,CLR,,0.00,WeatherDisplay:10.37,2013-02-23 14:54:00,
2013-02-23 05:59:00,-10.5,-14.9,29.46,North,0,0.0,0.0,80,0.00,CLR,,0.00,WeatherDisplay:10.37,2013-02-23 14:59:00,
2013-02-23 06:04:00,-10.3,-14.5,29.46,North,0,0.0,0.0,81,0.00,CLR,,0.00,WeatherDisplay:10.37,2013-02-23 15:04:00,
2013-02-23 06:09:00,-10.3,-14.8,29.45,North,0,0.0,0.0,80,0.00,CLR,,0.00,WeatherDisplay:10.37,2013-02-23 15:09:00,
2013-02-23 06:14:00,-10.8,-15.2,29.45,North,0,0.0,0.0,80,0.00,CLR,,0.00,WeatherDisplay:10.37,2013-02-23 15:14:00,
2013-02-23 06:24:00,-10.8,-15.3,29.45,North,0,1.0,0.0,80,0.00,CLR,,0.00,WeatherDisplay:10.37,2013-02-23 15:24:00,
2013-02-23 06:29:00,-11.0,-15.4,29.44,North,0,0.0,0.0,80,0.00,CLR,,0.00,WeatherDisplay:10.37,2013-02-23 15:29:00,
2013-02-23 06:34:00,-11.4,-15.8,29.45,North,0,0.0,0.0,80,0.00,CLR,,0.00,WeatherDisplay:10.37,2013-02-23 15:34:00,
2013-02-23 06:39:00,-11.4,-15.8,29.45,North,0,0.0,0.0,80,0.00,CLR,,0.00,WeatherDisplay:10.37,2013-02-23 15:39:00,
2013-02-23 06:44:00,-11.0,-15.5,29.45,North,0,0.0,0.0,80,0.00,CLR,,0.00,WeatherDisplay:10.37,2013-02-23 15:44:00,
2013-02-23 06:54:00,-10.8,-15.2,29.45,North,0,0.0,0.0,80,0.00,CLR,,0.00,WeatherDisplay:10.37,2013-02-23 15:54:00,
2013-02-23 06:59:00,-10.9,-15.1,29.45,North,0,0.0,0.0,81,0.00,CLR,,0.00,WeatherDisplay:10.37,2013-02-23 15:59:00,
2013-02-23 07:04:00,-11.0,-15.5,29.45,North,0,0.0,0.0,80,0.00,CLR,,0.00,WeatherDisplay:10.37,2013-02-23 16:04:00,
2013-02-23 07:10:00,-10.8,-15.3,29.45,North,0,0.0,0.0,80,0.00,CLR,,0.00,WeatherDisplay:10.37,2013-02-23 16:10:00,
2013-02-23 07:14:00,-10.5,-14.9,29.45,North,0,0.0,0.0,80,0.00,CLR,,0.00,WeatherDisplay:10.37,2013-02-23 16:14:00,
2013-02-23 07:24:00,-10.1,-14.6,29.45,North,0,0.0,0.0,80,0.00,CLR,,0.00,WeatherDisplay:10.37,2013-02-23 16:24:00,
2013-02-23 07:29:00,-9.9,-14.4,29.44,North,0,0.0,0.0,80,0.00,CLR,,0.00,WeatherDisplay:10.37,2013-02-23 16:29:00,
2013-02-23 07:39:00,-9.6,-14.3,29.44,North,0,0.0,0.0,79,0.00,CLR,,0.00,WeatherDisplay:10.37,2013-02-23 16:39:00,
2013-02-23 07:44:00,-9.2,-13.7,29.44,North,0,0.0,0.0,80,0.00,CLR,,0.00,WeatherDisplay:10.37,2013-02-23 16:44:00,
2013-02-23 07:54:00,-9.0,-13.5,29.44,North,0,0.0,0.0,80,0.00,CLR,,0.00,WeatherDisplay:10.37,2013-02-23 16:54:00,
2013-02-23 07:59:00,-9.1,-13.6,29.44,North,0,0.0,0.0,80,0.00,CLR,,0.00,WeatherDisplay:10.37,2013-02-23 16:59:00,
2013-02-23 08:09:00,-10.2,-15.0,29.44,North,0,1.0,0.0,79,0.00,CLR,,0.00,WeatherDisplay:10.37,2013-02-23 17:09:00,
2013-02-23 08:14:00,-10.8,-15.5,29.44,North,0,0.0,0.0,79,0.00,CLR,,0.00,WeatherDisplay:10.37,2013-02-23 17:14:00,
2013-02-23 08:24:00,-11.7,-16.4,29.44,North,0,0.0,0.0,79,0.00,CLR,,0.00,WeatherDisplay:10.37,2013-02-23 17:24:00,
2013-02-23 08:29:00,-11.9,-16.6,29.44,North,0,0.0,0.0,79,0.00,CLR,,0.00,WeatherDisplay:10.37,2013-02-23 17:29:00,
2013-02-23 08:39:00,-11.9,-15.6,29.44,North,0,0.0,0.0,83,0.00,CLR,,0.00,WeatherDisplay:10.37,2013-02-23 17:39:00,
2013-02-23 08:44:00,-11.7,-16.2,29.44,North,0,0.0,0.0,80,0.00,CLR,,0.00,WeatherDisplay:10.37,2013-02-23 17:44:00,
2013-02-23 08:54:00,-11.7,-16.4,29.44,North,0,0.0,0.0,79,0.00,CLR,,0.00,WeatherDisplay:10.37,2013-02-23 17:54:00,
2013-02-23 08:59:00,-11.6,-16.0,29.44,North,0,0.0,0.0,80,0.00,CLR,,0.00,WeatherDisplay:10.37,2013-02-23 17:59:00,
2013-02-23 09:09:00,-11.3,-15.2,29.44,North,0,0.0,0.0,82,0.00,CLR,,0.00,WeatherDisplay:10.37,2013-02-23 18:09:00,
2013-02-23 09:14:00,-11.1,-15.8,29.44,North,0,0.0,0.0,79,0.00,CLR,,0.00,WeatherDisplay:10.37,2013-02-23 18:14:00,
2013-02-23 09:24:00,-10.8,-15.3,29.44,North,0,0.0,0.0,80,0.00,CLR,,0.00,WeatherDisplay:10.37,2013-02-23 18:24:00,
2013-02-23 09:29:00,-10.5,-14.9,29.44,North,0,0.0,0.0,80,0.00,CLR,,0.00,WeatherDisplay:10.37,2013-02-23 18:29:00,
2013-02-23 09:39:00,-10.1,-14.3,29.44,North,0,0.0,0.0,81,0.00,CLR,,0.00,WeatherDisplay:10.37,2013-02-23 18:39:00,
2013-02-23 09:44:00,-9.9,-13.9,29.43,North,0,0.0,0.0,82,0.00,CLR,,0.00,WeatherDisplay:10.37,2013-02-23 18:44:00,
2013-02-23 09:54:00,-9.4,-14.4,29.44,North,0,0.0,0.0,78,0.00,CLR,,0.00,WeatherDisplay:10.37,2013-02-23 18:54:00,
2013-02-23 09:59:00,-9.2,-14.5,29.44,North,0,0.0,0.0,77,0.00,CLR,,0.00,WeatherDisplay:10.37,2013-02-23 18:59:00,
2013-02-23 10:04:00,-8.7,-13.7,29.43,North,0,0.0,0.0,78,0.00,CLR,,0.00,WeatherDisplay:10.37,2013-02-23 19:04:00,
2013-02-23 10:09:00,-8.0,-13.0,29.43,North,0,0.0,0.0,78,0.00,CLR,,0.00,WeatherDisplay:10.37,2013-02-23 19:09:00,
2013-02-23 10:14:00,-7.2,-12.0,29.44,North,0,0.0,0.0,79,0.00,CLR,,0.00,WeatherDisplay:10.37,2013-02-23 19:14:00,
2013-02-23 10:19:00,-5.9,-11.2,29.44,North,0,0.0,0.0,77,0.00,CLR,,0.00,WeatherDisplay:10.37,2013-02-23 19:19:00,
2013-02-23 10:24:00,-4.4,-10.4,29.43,North,0,0.0,0.0,75,0.00,CLR,,0.00,WeatherDisplay:10.37,2013-02-23 19:24:00,
2013-02-23 10:29:00,-3.3,-9.5,29.43,North,0,0.0,0.0,74,0.00,CLR,,0.00,WeatherDisplay:10.37,2013-02-23 19:29:00,
2013-02-23 10:39:00,-2.0,-8.0,29.43,North,0,1.0,0.0,75,0.00,CLR,,0.00,WeatherDisplay:10.37,2013-02-23 19:39:00,
2013-02-23 10:44:00,-1.5,-8.0,29.42,North,0,0.0,0.0,73,0.00,CLR,,0.00,WeatherDisplay:10.37,2013-02-23 19:44:00,
2013-02-23 10:54:00,0.9,-5.5,29.43,North,0,2.0,0.0,74,0.00,CLR,,0.00,WeatherDisplay:10.37,2013-02-23 19:54:00,
2013-02-23 10:59:00,0.9,-5.8,29.42,North,0,1.0,0.0,73,0.00,CLR,,0.00,WeatherDisplay:10.37,2013-02-23 19:59:00,
2013-02-23 11:04:00,0.3,-6.0,29.42,North,0,1.0,0.0,74,0.00,CLR,,0.00,WeatherDisplay:10.37,2013-02-23 20:04:00,
2013-02-23 11:09:00,0.3,-6.0,29.43,North,0,1.0,0.0,74,0.00,CLR,,0.00,WeatherDisplay:10.37,2013-02-23 20:09:00,
2013-02-23 11:14:00,0.9,-5.2,29.43,North,0,1.0,0.0,75,0.00,CLR,,0.00,WeatherDisplay:10.37,2013-02-23 20:14:00,
2013-02-23 11:24:00,1.8,-5.4,29.43,North,0,2.0,0.0,71,0.00,CLR,,0.00,WeatherDisplay:10.37,2013-02-23 20:24:00,
2013-02-23 11:29:00,1.8,-5.5,29.43,North,0,2.0,0.0,71,0.00,CLR,,0.00,WeatherDisplay:10.37,2013-02-23 20:29:00,
2013-02-23 11:39:00,3.0,-4.6,29.43,North,0,1.0,0.0,70,0.00,CLR,,0.00,WeatherDisplay:10.37,2013-02-23 20:39:00,
2013-02-23 11:44:00,3.4,-4.2,29.43,North,0,0.0,0.0,70,0.00,CLR,,0.00,WeatherDisplay:10.37,2013-02-23 20:44:00,
2013-02-23 11:54:00,4.3,-3.3,29.42,North,0,0.0,0.0,70,0.00,CLR,,0.00,WeatherDisplay:10.37,2013-02-23 20:54:00,
2013-02-23 12:00:00,4.5,-3.2,29.42,North,0,0.0,0.0,70,0.00,CLR,,0.00,WeatherDisplay:10.37,2013-02-23 21:00:00,
2013-02-23 12:09:00,3.5,-3.8,29.43,North,0,1.0,0.0,71,0.00,CLR,,0.00,WeatherDisplay:10.37,2013-02-23 21:09:00,
2013-02-23 12:14:00,2.5,-5.1,29.43,North,0,0.0,0.0,70,0.00,CLR,,0.00,WeatherDisplay:10.37,2013-02-23 21:14:00,
2013-02-23 12:24:00,2.0,-3.6,29.43,North,0,0.0,0.0,77,0.00,CLR,,0.00,WeatherDisplay:10.37,2013-02-23 21:24:00,
2013-02-23 12:29:00,1.9,-5.3,29.42,North,0,0.0,0.0,71,0.00,CLR,,0.00,WeatherDisplay:10.37,2013-02-23 21:29:00,
2013-02-23 12:39:00,3.0,-3.5,29.42,North,0,1.0,0.0,74,0.00,CLR,,0.00,WeatherDisplay:10.37,2013-02-23 21:39:00,
2013-02-23 12:45:00,2.7,-4.3,29.42,North,0,1.0,0.0,72,0.00,CLR,,0.00,WeatherDisplay:10.37,2013-02-23 21:45:00,
2013-02-23 12:50:00,2.4,-4.2,29.42,North,0,0.0,0.0,73,0.00,CLR,,0.00,WeatherDisplay:10.37,2013-02-23 21:50:00,
2013-02-23 12:59:00,2.5,-2.0,29.42,North,0,0.0,0.0,81,0.00,CLR,,0.00,WeatherDisplay:10.37,2013-02-23 21:59:00,
2013-02-23 13:04:00,2.7,-4.0,29.42,North,0,0.0,0.0,73,0.00,CLR,,0.00,WeatherDisplay:10.37,2013-02-23 22:04:00,
2013-02-23 13:09:00,2.8,-3.6,29.42,North,0,1.0,0.0,74,0.00,CLR,,0.00,WeatherDisplay:10.37,2013-02-23 22:09:00,
2013-02-23 13:14:00,3.0,-3.4,29.42,North,0,0.0,0.0,74,0.00,CLR,,0.00,WeatherDisplay:10.37,2013-02-23 22:14:00,
2013-02-23 13:19:00,3.3,-2.8,29.42,North,0,0.0,0.0,75,0.00,CLR,,0.00,WeatherDisplay:10.37,2013-02-23 22:19:00,
2013-02-23 13:24:00,3.6,-3.2,29.42,North,0,0.0,0.0,73,0.00,CLR,,0.00,WeatherDisplay:10.37,2013-02-23 22:24:00,
2013-02-23 13:29:00,3.9,-2.5,29.42,North,0,0.0,0.0,74,0.00,CLR,,0.00,WeatherDisplay:10.37,2013-02-23 22:29:00,
2013-02-23 13:40:00,4.3,-2.5,29.42,North,0,0.0,0.0,73,0.00,CLR,,0.00,WeatherDisplay:10.37,2013-02-23 22:40:00,
2013-02-23 13:49:00,4.5,-2.0,29.41,North,0,0.0,0.0,74,0.00,CLR,,0.00,WeatherDisplay:10.37,2013-02-23 22:49:00,
2013-02-23 13:54:00,4.3,-3.0,29.41,North,0,0.0,0.0,71,0.00,CLR,,0.00,WeatherDisplay:10.37,2013-02-23 22:54:00,
2013-02-23 13:59:00,4.0,-2.7,29.41,North,0,1.0,0.0,73,0.00,CLR,,0.00,WeatherDisplay:10.37,2013-02-23 22:59:00,
2013-02-23 14:09:00,3.6,-2.8,29.41,North,0,0.0,0.0,74,0.00,CLR,,0.00,WeatherDisplay:10.37,2013-02-23 23:09:00,
2013-02-23 14:14:00,3.6,-2.9,29.41,North,0,0.0,0.0,74,0.00,CLR,,0.00,WeatherDisplay:10.37,2013-02-23 23:14:00,
2013-02-23 14:24:00,3.7,-2.7,29.40,North,0,0.0,0.0,74,0.00,CLR,,0.00,WeatherDisplay:10.37,2013-02-23 23:24:00,
2013-02-23 14:29:00,3.9,-2.8,29.40,North,0,0.0,0.0,73,0.00,CLR,,0.00,WeatherDisplay:10.37,2013-02-23 23:29:00,
2013-02-23 14:39:00,4.0,-2.4,29.40,North,0,0.0,0.0,74,0.00,CLR,,0.00,WeatherDisplay:10.37,2013-02-23 23:39:00,
2013-02-23 14:44:00,3.9,-2.5,29.40,North,0,0.0,0.0,74,0.00,CLR,,0.00,WeatherDisplay:10.37,2013-02-23 23:44:00,
2013-02-23 14:54:00,4.4,-1.7,29.40,North,0,1.0,0.0,75,0.00,CLR,,0.00,WeatherDisplay:10.37,2013-02-23 23:54:00,
2013-02-23 14:59:00,4.3,-2.2,29.40,North,0,1.0,0.0,74,0.00,CLR,,0.00,WeatherDisplay:10.37,2013-02-23 23:59:00,
2013-02-23 15:04:00,4.3,-2.2,29.40,North,0,0.0,0.0,74,0.00,CLR,,0.00,WeatherDisplay:10.37,2013-02-24 00:04:00,
2013-02-23 15:10:00,4.3,-2.2,29.40,North,0,0.0,0.0,74,0.00,CLR,,0.00,WeatherDisplay:10.37,2013-02-24 00:10:00,
2013-02-23 15:14:00,4.3,-1.9,29.39,North,0,1.0,0.0,75,0.00,CLR,,0.00,WeatherDisplay:10.37,2013-02-24 00:14:00,
2013-02-23 15:24:00,4.2,-2.2,29.39,North,0,0.0,0.0,74,0.00,CLR,,0.00,WeatherDisplay:10.37,2013-02-24 00:24:00,
2013-02-23 15:30:00,4.1,-1.2,29.39,North,0,0.0,0.0,78,0.00,CLR,,0.00,WeatherDisplay:10.37,2013-02-24 00:30:00,
2013-02-23 15:39:00,3.9,1.4,29.39,North,0,0.0,0.0,89,0.00,CLR,,0.00,WeatherDisplay:10.37,2013-02-24 00:39:00,
2013-02-23 15:44:00,3.6,-2.3,29.39,North,0,0.0,0.0,76,0.00,CLR,,0.00,WeatherDisplay:10.37,2013-02-24 00:44:00,
2013-02-23 15:49:00,3.4,-2.8,29.39,North,0,0.0,0.0,75,0.00,CLR,,0.00,WeatherDisplay:10.37,2013-02-24 00:49:00,
2013-02-23 15:54:00,3.4,-3.9,29.39,North,0,0.0,0.0,71,0.00,CLR,,0.00,WeatherDisplay:10.37,2013-02-24 00:54:00,
2013-02-23 15:59:00,3.4,-2.5,29.39,North,0,0.0,0.0,76,0.00,CLR,,0.00,WeatherDisplay:10.37,2013-02-24 00:59:00,
2013-02-23 16:09:00,3.4,-2.8,29.39,North,0,0.0,0.0,75,0.00,CLR,,0.00,WeatherDisplay:10.37,2013-02-24 01:09:00,
2013-02-23 16:14:00,3.2,-2.4,29.39,North,0,0.0,0.0,77,0.00,CLR,,0.00,WeatherDisplay:10.37,2013-02-24 01:14:00,
2013-02-23 16:24:00,2.7,-3.2,29.38,North,0,0.0,0.0,76,0.00,CLR,,0.00,WeatherDisplay:10.37,2013-02-24 01:24:00,
2013-02-23 16:29:00,2.7,-2.6,29.38,North,0,0.0,0.0,78,0.00,CLR,,0.00,WeatherDisplay:10.37,2013-02-24 01:29:00,
2013-02-23 16:39:00,2.7,-2.9,29.38,North,0,0.0,0.0,77,0.00,CLR,,0.00,WeatherDisplay:10.37,2013-02-24 01:39:00,
2013-02-23 16:44:00,3.0,-2.8,29.38,North,0,0.0,0.0,76,0.00,CLR,,0.00,WeatherDisplay:10.37,2013-02-24 01:44:00,
2013-02-23 16:54:00,3.0,-2.6,29.37,North,0,0.0,0.0,77,0.00,CLR,,0.00,WeatherDisplay:10.37,2013-02-24 01:54:00,
2013-02-23 16:59:00,2.8,-3.0,29.38,North,0,0.0,0.0,76,0.00,CLR,,0.00,WeatherDisplay:10.37,2013-02-24 01:59:00,
2013-02-23 17:04:00,2.5,-3.1,29.38,North,0,0.0,0.0,77,0.00,CLR,,0.00,WeatherDisplay:10.37,2013-02-24 02:04:00,
2013-02-23 17:09:00,2.3,-3.3,29.37,North,0,0.0,0.0,77,0.00,CLR,,0.00,WeatherDisplay:10.37,2013-02-24 02:09:00,
2013-02-23 17:14:00,1.8,-3.8,29.37,North,0,0.0,0.0,77,0.00,CLR,,0.00,WeatherDisplay:10.37,2013-02-24 02:14:00,
2013-02-23 17:24:00,1.2,-4.4,29.37,North,0,0.0,0.0,77,0.00,CLR,,0.00,WeatherDisplay:10.37,2013-02-24 02:24:00,
2013-02-23 17:30:00,0.8,-4.2,29.37,North,0,0.0,0.0,79,0.00,CLR,,0.00,WeatherDisplay:10.37,2013-02-24 02:30:00,
2013-02-23 17:39:00,0.2,-5.0,29.37,North,0,0.0,0.0,78,0.00,CLR,,0.00,WeatherDisplay:10.37,2013-02-24 02:39:00,
2013-02-23 17:44:00,0.0,-5.3,29.37,North,0,0.0,0.0,78,0.00,CLR,,0.00,WeatherDisplay:10.37,2013-02-24 02:44:00,
2013-02-23 17:49:00,-0.2,-5.4,29.37,North,0,0.0,0.0,78,0.00,CLR,,0.00,WeatherDisplay:10.37,2013-02-24 02:49:00,
2013-02-23 17:54:00,-0.4,-5.4,29.37,North,0,0.0,0.0,79,0.00,CLR,,0.00,WeatherDisplay:10.37,2013-02-24 02:54:00,
2013-02-23 17:59:00,-0.6,-5.5,29.37,North,0,0.0,0.0,79,0.00,CLR,,0.00,WeatherDisplay:10.37,2013-02-24 02:59:00,
2013-02-23 18:09:00,-0.8,-5.4,29.37,North,0,0.0,0.0,80,0.00,CLR,,0.00,WeatherDisplay:10.37,2013-02-24 03:09:00,
2013-02-23 18:15:00,-0.8,-5.4,29.37,North,0,0.0,0.0,80,0.00,CLR,,0.00,WeatherDisplay:10.37,2013-02-24 03:15:00,
2013-02-23 18:24:00,-0.4,-5.1,29.37,North,0,0.0,0.0,80,0.00,CLR,,0.00,WeatherDisplay:10.37,2013-02-24 03:24:00,
2013-02-23 18:29:00,-0.6,-5.3,29.37,North,0,0.0,0.0,80,0.00,CLR,,0.00,WeatherDisplay:10.37,2013-02-24 03:29:00,
2013-02-23 18:39:00,-0.6,-5.3,29.37,North,0,0.0,0.0,80,0.00,CLR,,0.00,WeatherDisplay:10.37,2013-02-24 03:39:00,
2013-02-23 18:44:00,-0.6,-5.3,29.37,North,0,0.0,0.0,80,0.00,CLR,,0.00,WeatherDisplay:10.37,2013-02-24 03:44:00,
2013-02-23 18:54:00,-0.6,-5.3,29.37,North,0,0.0,0.0,80,0.00,CLR,,0.00,WeatherDisplay:10.37,2013-02-24 03:54:00,
2013-02-23 18:59:00,-0.6,-5.0,29.37,North,0,0.0,0.0,81,0.00,CLR,,0.00,WeatherDisplay:10.37,2013-02-24 03:59:00,
2013-02-23 19:04:00,-0.8,-5.4,29.37,North,0,0.0,0.0,80,0.00,CLR,,0.00,WeatherDisplay:10.37,2013-02-24 04:04:00,
2013-02-23 19:09:00,-0.8,-5.2,29.37,North,0,0.0,0.0,81,0.00,CLR,,0.00,WeatherDisplay:10.37,2013-02-24 04:09:00,
2013-02-23 19:14:00,-0.8,-4.9,29.37,North,0,0.0,0.0,82,0.00,CLR,,0.00,WeatherDisplay:10.37,2013-02-24 04:14:00,
2013-02-23 19:24:00,-0.5,-4.2,29.37,North,0,0.0,0.0,84,0.00,CLR,,0.00,WeatherDisplay:10.37,2013-02-24 04:24:00,
2013-02-23 19:29:00,-0.4,-4.6,29.37,North,0,0.0,0.0,82,0.00,CLR,,0.00,WeatherDisplay:10.37,2013-02-24 04:29:00,
2013-02-23 19:39:00,-0.4,-4.5,29.37,North,0,0.0,0.0,82,0.00,CLR,,0.00,WeatherDisplay:10.37,2013-02-24 04:39:00,
2013-02-23 19:44:00,-0.2,-4.7,29.37,North,0,0.0,0.0,81,0.00,CLR,,0.00,WeatherDisplay:10.37,2013-02-24 04:44:00,
2013-02-23 19:54:00,0.0,-4.5,29.37,North,0,0.0,0.0,81,0.00,CLR,,0.00,WeatherDisplay:10.37,2013-02-24 04:54:00,
2013-02-23 19:59:00,-0.1,-4.6,29.37,North,0,0.0,0.0,81,0.00,CLR,,0.00,WeatherDisplay:10.37,2013-02-24 04:59:00,
2013-02-23 20:04:00,0.0,-4.7,29.37,North,0,0.0,0.0,80,0.00,CLR,,0.00,WeatherDisplay:10.37,2013-02-24 05:04:00,
2013-02-23 20:09:00,0.0,-4.5,29.37,North,0,0.0,0.0,81,0.00,CLR,,0.00,WeatherDisplay:10.37,2013-02-24 05:09:00,
2013-02-23 20:14:00,0.0,-4.2,29.37,North,0,0.0,0.0,82,0.00,CLR,,0.00,WeatherDisplay:10.37,2013-02-24 05:14:00,
2013-02-23 20:24:00,0.1,-4.4,29.37,North,0,0.0,0.0,81,0.00,CLR,,0.00,WeatherDisplay:10.37,2013-02-24 05:24:00,
2013-02-23 20:30:00,0.0,-4.5,29.37,North,0,0.0,0.0,81,0.00,CLR,,0.00,WeatherDisplay:10.37,2013-02-24 05:30:00,
2013-02-23 20:39:00,0.1,-4.3,29.37,North,0,0.0,0.0,81,0.00,CLR,,0.00,WeatherDisplay:10.37,2013-02-24 05:39:00,
2013-02-23 20:44:00,0.1,-4.3,29.37,North,0,0.0,0.0,81,0.00,CLR,,0.00,WeatherDisplay:10.37,2013-02-24 05:44:00,
2013-02-23 20:54:00,-0.2,-4.7,29.37,North,0,0.0,0.0,81,0.00,CLR,,0.00,WeatherDisplay:10.37,2013-02-24 05:54:00,
2013-02-23 20:59:00,-0.2,-4.7,29.37,North,0,0.0,0.0,81,0.00,CLR,,0.00,WeatherDisplay:10.37,2013-02-24 05:59:00,
2013-02-23 21:04:00,-0.2,-4.7,29.37,North,0,0.0,0.0,81,0.00,CLR,,0.00,WeatherDisplay:10.37,2013-02-24 06:04:00,
2013-02-23 21:09:00,-0.2,-5.2,29.37,North,0,0.0,0.0,79,0.00,CLR,,0.00,WeatherDisplay:10.37,2013-02-24 06:09:00,
2013-02-23 21:14:00,0.0,-3.2,29.37,North,0,0.0,0.0,86,0.00,CLR,,0.00,WeatherDisplay:10.37,2013-02-24 06:14:00,
2013-02-23 21:24:00,0.0,-4.0,29.37,North,0,0.0,0.0,83,0.00,CLR,,0.00,WeatherDisplay:10.37,2013-02-24 06:24:00,
2013-02-23 21:29:00,0.0,-4.2,29.37,North,0,0.0,0.0,82,0.00,CLR,,0.00,WeatherDisplay:10.37,2013-02-24 06:29:00,
2013-02-23 21:34:00,0.0,-4.7,29.37,North,0,0.0,0.0,80,0.00,CLR,,0.00,WeatherDisplay:10.37,2013-02-24 06:34:00,
2013-02-23 21:39:00,0.0,-3.2,29.37,North,0,0.0,0.0,86,0.00,CLR,,0.00,WeatherDisplay:10.37,2013-02-24 06:39:00,
2013-02-23 21:44:00,-0.2,-4.7,29.37,North,0,0.0,0.0,81,0.00,CLR,,0.00,WeatherDisplay:10.37,2013-02-24 06:44:00,
2013-02-23 21:54:00,-0.4,-4.8,29.38,North,0,0.0,0.0,81,0.00,CLR,,0.00,WeatherDisplay:10.37,2013-02-24 06:54:00,
2013-02-23 21:59:00,-0.5,-4.2,29.37,North,0,0.0,0.0,84,0.00,CLR,,0.00,WeatherDisplay:10.37,2013-02-24 06:59:00,
2013-02-23 22:09:00,-0.6,-5.0,29.37,North,0,0.0,0.0,81,0.00,CLR,,0.00,WeatherDisplay:10.37,2013-02-24 07:09:00,
2013-02-23 22:14:00,-0.9,-5.1,29.38,North,0,0.0,0.0,82,0.00,CLR,,0.00,WeatherDisplay:10.37,2013-02-24 07:14:00,
2013-02-23 22:24:00,-1.1,-5.3,29.38,North,0,0.0,0.0,82,0.00,CLR,,0.00,WeatherDisplay:10.37,2013-02-24 07:24:00,
2013-02-23 22:29:00,-1.1,-5.8,29.38,North,0,0.0,0.0,80,0.00,CLR,,0.00,WeatherDisplay:10.37,2013-02-24 07:29:00,
2013-02-23 22:34:00,-1.1,-5.8,29.38,North,0,0.0,0.0,80,0.00,CLR,,0.00,WeatherDisplay:10.37,2013-02-24 07:34:00,
2013-02-23 22:39:00,-1.1,-5.5,29.38,North,0,0.0,0.0,81,0.00,CLR,,0.00,WeatherDisplay:10.37,2013-02-24 07:39:00,
2013-02-23 22:44:00,-1.4,-5.5,29.38,North,0,0.0,0.0,82,0.00,CLR,,0.00,WeatherDisplay:10.37,2013-02-24 07:44:00,
2013-02-23 22:54:00,-1.6,-6.0,29.38,North,0,0.0,0.0,81,0.00,CLR,,0.00,WeatherDisplay:10.37,2013-02-24 07:54:00,
2013-02-23 22:59:00,-1.8,-6.0,29.38,North,0,0.0,0.0,82,0.00,CLR,,0.00,WeatherDisplay:10.37,2013-02-24 07:59:00,
2013-02-23 23:09:00,-1.8,-6.2,29.39,North,0,0.0,0.0,81,0.00,CLR,,0.00,WeatherDisplay:10.37,2013-02-24 08:09:00,
2013-02-23 23:14:00,-1.8,-6.2,29.39,North,0,0.0,0.0,81,0.00,CLR,,0.00,WeatherDisplay:10.37,2013-02-24 08:14:00,
2013-02-23 23:19:00,-2.0,-6.4,29.39,North,0,0.0,0.0,81,0.00,CLR,,0.00,WeatherDisplay:10.37,2013-02-24 08:19:00,
2013-02-23 23:24:00,-2.2,-5.6,29.39,North,0,0.0,0.0,85,0.00,CLR,,0.00,WeatherDisplay:10.37,2013-02-24 08:24:00,
2013-02-23 23:29:00,-2.4,-6.8,29.39,North,0,0.0,0.0,81,0.00,CLR,,0.00,WeatherDisplay:10.37,2013-02-24 08:29:00,
2013-02-23 23:39:00,-2.4,-6.8,29.39,North,0,0.0,0.0,81,0.00,CLR,,0.00,WeatherDisplay:10.37,2013-02-24 08:39:00,
2013-02-23 23:44:00,-2.6,-7.0,29.39,North,0,0.0,0.0,81,0.00,CLR,,0.00,WeatherDisplay:10.37,2013-02-24 08:44:00,
2013-02-23 23:49:00,-2.6,-6.5,29.39,North,0,0.0,0.0,83,0.00,CLR,,0.00,WeatherDisplay:10.37,2013-02-24 08:49:00,
2013-02-23 23:54:00,-2.7,-7.1,29.39,North,0,0.0,0.0,81,0.00,CLR,,0.00,WeatherDisplay:10.37,2013-02-24 08:54:00,
2013-02-23 23:59:00,-2.7,-6.6,29.39,North,0,0.0,0.0,83,0.00,CLR,,0.00,WeatherDisplay:10.37,2013-02-24 08:59:00,